"Period start","avg(HW err(1)/warn(2) (#))","avg(Visibility (m))","avg(Weather code (#))","avg(Precip intensity (mm/h))","min(HW err(1)/warn(2) (#))","max(HW err(1)/warn(2) (#))","std(HW err(1)/warn(2) (#))","med(HW err(1)/warn(2) (#))","min(Visibility (m))","max(Visibility (m))","std(Visibility (m))","med(Visibility (m))","min(Weather code (#))","max(Weather code (#))","std(Weather code (#))","med(Weather code (#))","min(Precip intensity (mm/h))","max(Precip intensity (mm/h))","std(Precip intensity (mm/h))","med(Precip intensity (mm/h))"
2014-04-28 06:00:00,2,29618,0,0.00,2,2,0,2,19037,43647,9135,24264,0,0,0,0,0.00,0.00,0.00,0.00
2014-04-28 06:10:00,2,31536,0,0.00,2,2,0,2,23678,47987,7393,29904,0,0,0,0,0.00,0.00,0.00,0.00
2014-04-28 06:20:00,2,21900,0,0.00,2,2,0,2,14931,27388,3869,22496,0,0,0,0,0.00,0.00,0.00,0.00
2014-04-28 06:30:00,2,24992,0,0.00,2,2,0,2,17215,34251,4791,24330,0,0,0,0,0.00,0.00,0.00,0.00
2014-04-28 06:40:00,2,30049,0,0.00,2,2,0,2,19533,47942,7663,28814,0,0,0,0,0.00,0.00,0.00,0.00
2014-04-28 06:50:00,2,29602,0,0.00,2,2,0,2,23501,43106,6213,28155,0,0,0,0,0.00,0.00,0.00,0.00
2014-04-28 07:00:00,2,25183,0,0.00,2,2,0,2,17570,32788,4639,24896,0,0,0,0,0.00,0.00,0.00,0.00
2014-04-28 07:10:00,2,33763,0,0.00,2,2,0,2,23941,43538,5944,35685,0,0,0,0,0.00,0.00,0.00,0.00
2014-04-28 07:20:00,2,27296,0,0.00,2,2,0,2,21730,31077,3219,28172,0,0,0,0,0.00,0.00,0.00,0.00
2014-04-28 07:30:00,2,28627,0,0.00,2,2,0,2,17909,41707,6346,27570,0,0,0,0,0.00,0.00,0.00,0.00
2014-04-28 07:40:00,2,25311,0,0.00,2,2,0,2,17250,34561,5404,24214,0,0,0,0,0.00,0.00,0.00,0.00
2014-04-28 07:50:00,2,27698,0,0.00,2,2,0,2,18560,34050,4705,28816,0,0,0,0,0.00,0.00,0.00,0.00
2014-04-28 08:00:00,2,28437,0,0.00,2,2,0,2,17453,37193,6579,29395,0,0,0,0,0.00,0.00,0.00,0.00
2014-04-28 08:10:00,2,31605,0,0.00,2,2,0,2,25796,39520,4559,31154,0,0,0,0,0.00,0.00,0.00,0.00
2014-04-28 08:20:00,2,27211,0,0.00,2,2,0,2,19754,41910,5966,25830,0,0,0,0,0.00,0.00,0.00,0.00
2014-04-28 08:30:00,2,28930,0,0.00,2,2,0,2,20334,39410,5907,26528,0,0,0,0,0.00,0.00,0.00,0.00
2014-04-28 08:40:00,2,28851,0,0.00,2,2,0,2,21823,33999,3898,28637,0,0,0,0,0.00,0.00,0.00,0.00
2014-04-28 08:50:00,2,28562,0,0.00,2,2,0,2,16038,38255,6900,30606,0,0,0,0,0.00,0.00,0.00,0.00
2014-04-28 09:00:00,2,42190,0,0.00,2,2,0,2,27067,49247,5912,44560,0,0,0,0,0.00,0.00,0.00,0.00
2014-04-28 09:10:00,2,30125,0,0.00,2,2,0,2,22516,36265,5307,31693,0,0,0,0,0.00,0.00,0.00,0.00
2014-04-28 09:20:00,2,30692,0,0.00,2,2,0,2,23884,40480,5366,29938,0,0,0,0,0.00,0.00,0.00,0.00
2014-04-28 09:30:00,2,27249,0,0.00,2,2,0,2,20216,42743,6731,24707,0,0,0,0,0.00,0.00,0.00,0.00
2014-04-28 09:40:00,2,30104,0,0.00,2,2,0,2,25815,38308,3591,29502,0,0,0,0,0.00,0.00,0.00,0.00
2014-04-28 09:50:00,2,32432,0,0.00,2,2,0,2,24651,40959,5308,31476,0,0,0,0,0.00,0.00,0.00,0.00
2014-04-28 10:00:00,2,26929,0,0.00,2,2,0,2,21591,32599,3528,27176,0,0,0,0,0.00,0.00,0.00,0.00
2014-04-28 10:10:00,2,33403,0,0.00,2,2,0,2,26062,39084,4298,34557,0,0,0,0,0.00,0.00,0.00,0.00
2014-04-28 10:20:00,2,29101,0,0.00,2,2,0,2,23831,35183,3369,29808,0,0,0,0,0.00,0.00,0.00,0.00
2014-04-28 10:30:00,2,33872,0,0.00,2,2,0,2,22798,46823,7627,32256,0,0,0,0,0.00,0.00,0.00,0.00
2014-04-28 10:40:00,2,28772,0,0.00,2,2,0,2,21422,36230,5377,28606,0,0,0,0,0.00,0.00,0.00,0.00
2014-04-28 10:50:00,2,33884,0,0.00,2,2,0,2,28555,37447,2643,34034,0,0,0,0,0.00,0.00,0.00,0.00
2014-04-28 11:00:00,2,32944,0,0.00,2,2,0,2,26440,39439,4023,31970,0,0,0,0,0.00,0.00,0.00,0.00
2014-04-28 11:10:00,2,31568,0,0.00,2,2,0,2,26589,40290,4119,31044,0,0,0,0,0.00,0.00,0.00,0.00
2014-04-28 11:20:00,2,34317,0,0.00,2,2,0,2,27589,42746,5301,34371,0,0,0,0,0.00,0.00,0.00,0.00
2014-04-28 11:30:00,2,32493,0,0.00,2,2,0,2,25660,39245,3939,32783,0,0,0,0,0.00,0.00,0.00,0.00
2014-04-28 11:40:00,2,31905,0,0.00,2,2,0,2,27019,37621,3875,31930,0,0,0,0,0.00,0.00,0.00,0.00
2014-04-28 11:50:00,2,32569,0,0.00,2,2,0,2,26585,38121,3698,33186,0,0,0,0,0.00,0.00,0.00,0.00
2014-04-28 12:00:00,2,29404,0,0.00,2,2,0,2,24297,38229,4901,27090,0,0,0,0,0.00,0.00,0.00,0.00
2014-04-28 12:10:00,2,24433,0,0.00,2,2,0,2,18909,30289,3457,25118,0,0,0,0,0.00,0.00,0.00,0.00
2014-04-28 12:20:00,2,18830,22,0.01,2,2,0,2,12774,21888,2587,19186,0,77,33,0,0.00,0.10,0.03,0.00
2014-04-28 12:30:00,2,13238,74,0.04,2,2,0,2,4823,15968,3544,14898,71,77,3,74,0.00,0.40,0.12,0.00
2014-04-28 12:40:00,2,22912,30,0.01,2,2,0,2,17883,26945,3211,24039,0,71,31,20,0.00,0.05,0.02,0.00
2014-04-28 12:50:00,2,26615,0,0.00,2,2,0,2,23747,29889,2189,25852,0,0,0,0,0.00,0.00,0.00,0.00
2014-04-28 13:00:00,2,27000,0,0.00,2,2,0,2,23704,33687,2802,26445,0,0,0,0,0.00,0.00,0.00,0.00
2014-04-28 13:10:00,2,26216,0,0.00,2,2,0,2,23172,29564,2111,26036,0,0,0,0,0.00,0.00,0.00,0.00
2014-04-28 13:20:00,2,27553,0,0.00,2,2,0,2,23541,29568,1810,28054,0,0,0,0,0.00,0.00,0.00,0.00
2014-04-28 13:30:00,2,27039,0,0.00,2,2,0,2,24179,33662,2593,26591,0,0,0,0,0.00,0.00,0.00,0.00
2014-04-28 13:40:00,2,28162,0,0.00,2,2,0,2,25027,30370,1834,28684,0,0,0,0,0.00,0.00,0.00,0.00
2014-04-28 13:50:00,2,29229,0,0.00,2,2,0,2,24097,34525,2832,29531,0,0,0,0,0.00,0.00,0.00,0.00
2014-04-28 14:00:00,2,27469,0,0.00,2,2,0,2,24169,29949,1628,27490,0,0,0,0,0.00,0.00,0.00,0.00
2014-04-28 14:10:00,2,26199,0,0.00,2,2,0,2,23497,28099,1555,26584,0,0,0,0,0.00,0.00,0.00,0.00
2014-04-28 14:20:00,2,29359,0,0.00,2,2,0,2,25639,33229,2536,29309,0,0,0,0,0.00,0.00,0.00,0.00
2014-04-28 14:30:00,2,29701,0,0.00,2,2,0,2,26883,33107,2280,29813,0,0,0,0,0.00,0.00,0.00,0.00
2014-04-28 14:40:00,2,28496,0,0.00,2,2,0,2,25974,30991,1389,28408,0,0,0,0,0.00,0.00,0.00,0.00
2014-04-28 14:50:00,2,27372,0,0.00,2,2,0,2,23138,31720,2554,26604,0,0,0,0,0.00,0.00,0.00,0.00
2014-04-28 15:00:00,2,28013,0,0.00,2,2,0,2,24334,33944,3151,26550,0,0,0,0,0.00,0.00,0.00,0.00
2014-04-28 15:10:00,2,26957,0,0.00,2,2,0,2,24304,30608,2004,26239,0,0,0,0,0.00,0.00,0.00,0.00
2014-04-28 15:20:00,2,25596,0,0.00,2,2,0,2,23223,28225,1462,25396,0,0,0,0,0.00,0.00,0.00,0.00
2014-04-28 15:30:00,2,25789,0,0.00,2,2,0,2,23378,27676,1388,25910,0,0,0,0,0.00,0.00,0.00,0.00
2014-04-28 15:40:00,2,25267,0,0.00,2,2,0,2,22515,28194,1862,24998,0,0,0,0,0.00,0.00,0.00,0.00
2014-04-28 15:50:00,2,23831,0,0.00,2,2,0,2,21234,28191,2084,23348,0,0,0,0,0.00,0.00,0.00,0.00
2014-04-28 16:00:00,2,25284,0,0.00,2,2,0,2,22485,27599,1583,25180,0,0,0,0,0.00,0.00,0.00,0.00
2014-04-28 16:10:00,2,25770,0,0.00,2,2,0,2,22652,31000,2670,24310,0,0,0,0,0.00,0.00,0.00,0.00
2014-04-28 16:20:00,2,29888,0,0.00,2,2,0,2,23634,35423,4877,30940,0,0,0,0,0.00,0.00,0.00,0.00
2014-04-28 16:30:00,2,29435,0,0.00,2,2,0,2,26796,33168,1989,29116,0,0,0,0,0.00,0.00,0.00,0.00
2014-04-28 16:40:00,2,30053,0,0.00,2,2,0,2,28442,32769,1389,29675,0,0,0,0,0.00,0.00,0.00,0.00
2014-04-28 16:50:00,2,31758,0,0.00,2,2,0,2,26300,36874,2620,31646,0,0,0,0,0.00,0.00,0.00,0.00
2014-04-28 17:00:00,2,31255,0,0.00,2,2,0,2,26251,35326,2556,31593,0,0,0,0,0.00,0.00,0.00,0.00
2014-04-28 17:10:00,2,31093,0,0.00,2,2,0,2,28090,34161,2036,30725,0,0,0,0,0.00,0.00,0.00,0.00
2014-04-28 17:20:00,2,27942,0,0.00,2,2,0,2,9605,34259,6528,29026,0,0,0,0,0.00,0.00,0.00,0.00
2014-04-28 17:30:00,2,26870,0,0.00,2,2,0,2,22541,31661,2412,26586,0,0,0,0,0.00,0.00,0.00,0.00
2014-04-28 17:40:00,2,30091,0,0.00,2,2,0,2,23295,40264,4977,29642,0,0,0,0,0.00,0.00,0.00,0.00
2014-04-28 17:50:00,2,25673,0,0.00,2,2,0,2,17836,29973,3343,26250,0,0,0,0,0.00,0.00,0.00,0.00
2014-04-28 18:00:00,2,24642,0,0.00,2,2,0,2,21521,26778,1716,24320,0,0,0,0,0.00,0.00,0.00,0.00
2014-04-28 18:10:00,2,17364,0,0.00,2,2,0,2,12397,19442,1825,17571,0,0,0,0,0.00,0.00,0.00,0.00
2014-04-28 18:20:00,2,18166,0,0.00,2,2,0,2,16186,22528,1705,17584,0,0,0,0,0.00,0.00,0.00,0.00
2014-04-28 18:30:00,2,21780,0,0.00,2,2,0,2,10795,26746,4772,23296,0,0,0,0,0.00,0.00,0.00,0.00
2014-04-28 18:40:00,2,26750,0,0.00,2,2,0,2,6549,38559,7731,27862,0,0,0,0,0.00,0.00,0.00,0.00
2014-04-28 18:50:00,2,23821,22,0.00,2,2,0,2,13834,28510,3870,24828,0,77,33,0,0.00,0.00,0.00,0.00
2014-04-28 19:00:00,2,24426,0,0.00,2,2,0,2,23010,27234,1347,23906,0,0,0,0,0.00,0.00,0.00,0.00
2014-04-28 19:10:00,2,24556,0,0.00,2,2,0,2,14689,29995,4987,25760,0,0,0,0,0.00,0.00,0.00,0.00
2014-04-28 19:20:00,2,19538,58,0.04,2,2,0,2,8100,27076,5591,20816,0,77,29,71,0.00,0.20,0.07,0.00
2014-04-28 19:30:00,2,20113,36,0.01,2,2,0,2,11572,30353,5769,19403,0,71,36,36,0.00,0.10,0.03,0.00
2014-04-28 19:40:00,2,25874,22,0.00,2,2,0,2,17992,35576,4829,25036,0,78,34,0,0.00,0.00,0.00,0.00
2014-04-28 19:50:00,2,15975,71,0.11,2,2,0,2,9850,22037,4014,15581,71,71,0,71,0.00,0.50,0.15,0.05
2014-04-28 20:00:00,2,13752,71,0.20,2,2,0,2,8176,18844,3783,13816,71,71,0,71,0.00,0.80,0.28,0.05
2014-04-28 20:10:00,2,11678,71,0.22,2,2,0,2,4687,18039,3431,11096,71,71,0,71,0.00,0.70,0.24,0.10
2014-04-28 20:20:00,2,12435,71,0.15,2,2,0,2,9746,15163,1630,12464,71,71,0,71,0.00,0.35,0.13,0.12
2014-04-28 20:30:00,2,15212,71,0.11,2,2,0,2,11717,18082,2302,14982,71,71,0,71,0.00,0.35,0.12,0.05
2014-04-28 20:40:00,2,16139,73,0.04,2,2,0,2,11627,19482,2616,17144,71,77,3,71,0.00,0.10,0.05,0.00
2014-04-28 20:50:00,2,13826,71,0.16,2,2,0,2,7193,22116,4373,13467,71,71,0,71,0.00,0.80,0.23,0.05
2014-04-28 21:00:00,2,14139,71,0.10,2,2,0,2,4756,22186,4963,14718,71,71,0,71,0.00,0.65,0.19,0.05
2014-04-28 21:10:00,2,17470,71,0.06,2,2,0,2,8458,27476,5772,17696,71,71,0,71,0.00,0.20,0.08,0.00
2014-04-28 21:20:00,2,16828,37,0.02,2,2,0,2,11436,21540,3396,17318,0,71,32,41,0.00,0.15,0.05,0.00
2014-04-28 21:30:00,2,21924,52,0.01,2,2,0,2,11340,31344,6230,21113,0,77,34,71,0.00,0.10,0.03,0.00
2014-04-28 21:40:00,2,20168,45,0.02,2,2,0,2,12839,31554,5508,18046,0,77,37,71,0.00,0.05,0.02,0.00
2014-04-28 21:50:00,2,27156,54,0.00,2,2,0,2,16720,35625,5238,26730,0,78,36,78,0.00,0.00,0.00,0.00
2014-04-28 22:00:00,2,26033,0,0.00,2,2,0,2,19192,33381,4528,26502,0,0,0,0,0.00,0.00,0.00,0.00
2014-04-28 22:10:00,2,22090,53,0.01,2,2,0,2,16553,26369,3312,22094,0,78,35,74,0.00,0.10,0.03,0.00
2014-04-28 22:20:00,2,27764,22,0.01,2,2,0,2,21813,34000,3806,27618,0,77,33,0,0.00,0.10,0.03,0.00
2014-04-28 22:30:00,2,24204,22,0.01,2,2,0,2,16819,30861,5108,23596,0,77,33,0,0.00,0.05,0.02,0.00
2014-04-28 22:40:00,2,25540,14,0.00,2,2,0,2,17684,38555,6231,24389,0,71,28,0,0.00,0.00,0.00,0.00
2014-04-28 22:50:00,2,24410,31,0.00,2,2,0,2,19262,33520,4759,22618,0,77,38,0,0.00,0.00,0.00,0.00
2014-04-28 23:00:00,2,27153,0,0.00,2,2,0,2,17753,36236,5284,26538,0,0,0,0,0.00,0.00,0.00,0.00
2014-04-28 23:10:00,2,31563,0,0.00,2,2,0,2,22606,39017,5389,32318,0,0,0,0,0.00,0.00,0.00,0.00
2014-04-28 23:20:00,2,28697,0,0.00,2,2,0,2,20067,37036,4381,28976,0,0,0,0,0.00,0.00,0.00,0.00
2014-04-28 23:30:00,2,29910,0,0.00,2,2,0,2,20087,38035,5062,28798,0,0,0,0,0.00,0.00,0.00,0.00
2014-04-28 23:40:00,2,36138,0,0.00,2,2,0,2,23814,46117,6734,36904,0,0,0,0,0.00,0.00,0.00,0.00
2014-04-28 23:50:00,2,38576,0,0.00,2,2,0,2,31115,48914,4463,38793,0,0,0,0,0.00,0.00,0.00,0.00
